Probability
21 11 2 0 0 0 0 0 0 0 0 0 0 0 0 0 0 0 0 0 0 0 1 2 2 1 0 0 0 0 0 0 1 2 2 1 0 0 0 0 0 0 0 0 0 0 0 1 3
14 8 2 1 0 0 0 0 0 0 0 0 0 0 0 0 0 0 0 0 0 0 0 1 2 1 0 0 0 0 0 0 0 1 1 1 0 0 0 0 0 0 0 0 0 0 0 2 3
6 6 4 2 1 0 0 0 0 0 0 0 0 0 0 0 0 0 0 0 0 0 0 1 2 1 0 0 0 0 0 0 0 0 0 0 0 0 0 0 0 0 0 0 0 0 0 1 2
5 7 6 3 1 0 0 0 0 0 0 0 0 0 0 1 2 2 1 0 0 0 0 2 3 3 1 0 0 0 0 0 0 0 0 0 0 0 0 0 0 0 0 0 0 0 0 0 1
5 6 4 2 0 0 0 0 0 0 0 0 0 0 0 1 3 3 1 0 0 0 0 2 3 3 2 0 0 0 0 0 0 0 0 0 0 0 1 1 1 0 0 0 0 0 0 0 0
3 2 1 0 0 0 1 1 1 0 0 0 0 0 1 2 2 1 0 0 0 0 0 1 3 3 1 1 0 0 0 0 0 0 0 0 0 0 1 2 2 1 0 0 0 0 0 0 0
2 1 0 0 0 1 2 2 1 1 0 0 0 0 1 2 2 0 0 0 0 0 1 2 3 3 2 1 1 0 0 0 0 0 0 1 0 0 1 2 2 1 0 0 0 0 0 0 1
2 1 0 0 0 1 1 1 1 1 1 0 0 0 1 2 2 1 0 0 0 0 1 2 3 3 2 1 1 1 1 0 0 0 0 0 0 0 0 1 1 1 0 0 0 0 0 1 2
2 1 0 0 0 0 1 1 1 2 3 2 1 1 1 3 3 2 1 1 0 0 1 1 2 2 1 0 0 1 1 1 1 0 0 0 0 0 0 0 0 0 1 1 1 1 1 2 3
1 0 0 0 0 1 2 2 2 4 5 3 3 3 4 5 5 4 3 2 1 0 0 1 1 1 0 0 0 0 0 0 0 0 0 0 0 0 0 0 1 1 1 2 2 2 2 3 3
0 0 0 0 0 1 2 2 2 3 4 4 5 7 9 8 7 7 7 5 3 2 1 1 0 0 0 0 0 0 0 0 0 0 0 0 0 0 0 1 2 2 1 1 1 1 1 1 1
0 0 0 0 0 0 1 1 1 3 3 4 7 10 11 8 7 8 8 6 4 3 3 1 1 1 0 0 0 0 0 0 0 0 0 0 0 0 0 1 2 1 0 0 0 0 0 0 0
0 0 0 1 1 0 0 1 2 4 4 5 7 9 9 7 6 6 6 5 4 4 3 3 3 2 1 0 0 0 0 0 0 0 0 0 0 0 0 1 1 1 0 0 0 0 0 0 0
0 0 0 1 1 0 0 1 3 5 6 6 6 6 6 6 5 5 4 4 5 4 4 4 4 3 1 0 0 0 0 0 0 0 0 0 0 0 0 0 0 0 0 0 0 0 0 0 0
0 0 0 1 1 0 0 1 2 5 7 7 5 4 4 5 5 5 6 6 6 5 4 4 5 3 1 1 1 0 0 0 0 0 0 0 0 0 0 0 0 0 0 0 0 0 0 0 0
0 0 0 0 0 0 0 0 2 5 7 7 6 5 5 6 6 7 7 7 6 6 5 4 5 4 2 2 2 1 0 0 0 0 0 0 0 0 1 0 0 0 0 0 0 0 0 0 0
0 0 0 0 0 0 0 0 1 4 7 8 7 7 7 7 7 7 7 6 6 6 5 5 6 6 4 2 2 1 0 0 0 0 0 0 0 0 0 0 0 0 0 0 0 0 0 0 0
0 0 0 0 0 0 0 0 1 3 7 9 8 8 9 9 8 7 6 6 7 6 5 6 8 8 5 3 2 1 1 0 0 0 0 0 0 0 0 0 0 0 0 0 0 0 0 0 0
0 0 0 0 0 1 0 0 1 3 7 9 8 8 9 9 8 6 6 6 8 8 8 9 10 9 6 4 3 1 1 1 0 0 0 0 0 0 0 0 0 0 0 0 0 0 0 0 0
0 0 0 0 0 0 0 0 1 3 6 8 8 8 8 7 6 6 6 8 12 13 12 11 12 10 7 5 3 1 1 1 0 0 0 0 0 1 1 1 1 0 1 1 1 0 1 1 0
0 0 0 0 0 0 0 0 0 2 5 8 9 8 8 7 6 6 7 13 18 19 16 13 12 12 10 8 5 3 2 1 1 0 0 0 1 2 3 3 2 2 2 3 3 2 2 2 1
0 0 0 0 0 0 0 0 0 2 7 10 10 10 10 10 10 10 12 18 24 23 19 14 12 12 13 12 9 7 5 3 2 1 1 0 1 4 6 6 4 3 3 5 5 5 4 3 3
0 0 0 0 0 0 0 0 1 4 8 11 12 11 12 13 15 16 18 22 25 23 19 16 13 13 14 15 13 10 8 6 5 4 2 2 3 5 8 8 6 4 4 5 6 7 5 3 2
1 1 0 0 0 0 0 0 2 5 8 11 14 14 15 16 19 21 23 24 25 23 21 18 17 17 17 17 16 13 10 8 7 6 5 4 4 5 7 7 6 6 6 6 6 6 4 2 1
0 0 0 0 0 0 0 0 1 3 7 12 17 18 18 20 21 23 25 25 26 26 24 22 20 20 21 21 19 15 11 10 9 7 6 6 5 5 6 7 7 7 6 6 6 5 4 2 1
0 0 0 0 0 0 0 0 1 4 7 13 18 20 21 23 25 26 25 25 27 26 25 23 23 23 23 22 20 17 13 11 10 8 8 8 6 5 5 7 8 7 7 6 6 4 3 3 2
0 0 0 0 0 0 0 0 2 6 10 16 21 23 25 27 30 30 27 28 29 29 27 27 27 27 24 22 20 17 15 13 12 11 11 10 7 5 5 7 8 8 7 6 4 2 2 3 3
0 0 0 0 0 0 0 0 2 6 12 19 23 25 27 29 32 33 31 32 35 36 33 31 31 29 26 23 21 17 15 15 15 14 13 11 9 6 6 6 7 7 6 4 2 1 1 1 2
0 0 0 0 0 0 0 1 3 6 12 17 22 25 25 25 29 33 34 36 40 42 38 34 32 31 29 26 23 20 17 17 17 16 15 14 11 9 7 6 6 6 5 2 1 0 0 0 1
0 0 0 0 0 0 1 3 4 8 10 14 20 24 23 22 27 32 34 37 41 44 42 36 32 31 32 28 25 23 21 19 18 17 17 16 13 10 9 6 5 4 3 2 1 1 0 0 0
Wind_Speed
10 7 3 1 2 4 5 5 7 8 6 7 10 10 9 6 5 6 3 8 10 8 6 9 11 13 13 13 14 14 14 15 15 14 14 14 13 14 14 14 14 14 14 14 13 13 13 14 15
7 6 2 1 4 4 4 6 10 9 10 11 11 10 9 7 7 9 5 9 11 9 6 8 12 13 13 13 13 14 14 14 14 14 13 13 13 13 13 13 14 14 14 13 13 13 13 14 14
7 4 1 2 2 5 5 6 11 11 10 9 7 6 6 7 8 6 7 12 10 8 6 8 13 13 13 13 13 13 13 13 13 13 13 13 12 12 12 13 13 14 14 13 13 13 13 13 13
3 1 1 2 3 5 8 8 11 13 10 9 9 8 5 6 6 9 13 13 11 7 6 9 14 14 14 13 13 13 13 12 12 12 12 12 12 12 12 12 13 13 13 13 12 12 12 11 11
2 2 3 2 4 6 8 11 11 11 6 9 11 9 6 5 14 16 14 12 11 7 5 8 13 14 13 13 13 13 12 12 11 11 11 11 11 11 12 12 13 12 12 12 12 11 10 10 10
2 2 3 3 5 5 7 11 14 15 14 12 12 9 5 9 15 14 13 11 10 9 6 7 12 13 13 13 13 12 12 11 11 11 11 10 11 11 12 12 12 12 12 11 11 10 9 8 8
2 2 2 4 6 6 7 9 12 13 13 9 10 8 6 9 12 13 12 11 9 8 7 5 6 9 12 12 12 12 11 11 10 10 10 10 10 10 11 11 12 12 11 11 10 9 8 7 6
4 3 2 4 7 5 6 6 10 14 11 13 9 9 9 10 12 12 11 10 9 7 6 5 5 5 5 7 11 11 11 11 10 10 10 9 9 9 10 10 11 12 11 10 9 8 7 6 5
4 4 3 5 7 6 6 9 9 9 12 8 5 9 14 16 15 13 10 8 7 7 5 5 5 4 5 5 8 9 10 10 9 8 9 7 3 4 5 8 11 11 10 9 8 7 6 5 4
5 5 7 7 9 9 10 12 9 8 10 9 11 13 17 16 15 13 12 10 9 8 7 6 6 5 5 5 4 3 4 4 3 3 4 3 3 2 4 8 10 10 9 8 7 6 5 3 1
4 6 5 6 9 10 10 10 7 12 10 14 18 18 17 16 13 13 11 10 10 10 9 7 6 6 5 3 4 2 2 3 3 4 4 3 2 2 2 2 4 4 5 3 3 3 2 1 1
2 2 5 6 8 10 10 9 7 8 11 16 18 18 16 15 14 13 12 10 9 9 9 8 7 6 5 4 4 3 3 3 3 3 4 3 2 2 2 2 2 2 2 2 2 1 2 2 2
1 2 5 6 8 8 11 10 9 8 13 16 16 15 15 14 12 11 12 11 10 9 8 8 7 6 5 4 3 4 3 4 4 3 3 4 3 3 3 2 2 2 2 2 2 2 2 2 2
1 3 4 4 6 7 11 9 8 11 16 16 15 13 13 13 13 10 10 10 10 9 9 7 7 7 6 4 3 3 3 3 4 3 4 5 4 4 3 3 3 2 3 3 2 2 2 2 2
3 6 4 3 4 4 10 6 8 15 17 15 14 13 12 11 12 12 13 12 11 10 9 8 8 7 6 5 4 4 4 4 4 4 4 4 4 4 4 3 3 3 2 2 2 1 1 1 1
4 4 1 2 4 4 8 4 6 13 16 14 13 13 12 11 12 12 12 11 11 10 9 8 8 7 6 5 4 3 4 4 4 3 4 5 4 4 3 3 3 3 2 2 2 2 2 1 1
3 1 3 3 4 5 5 4 7 10 13 14 13 12 12 11 11 11 13 13 12 11 10 8 7 7 6 5 4 3 3 4 3 3 3 4 4 4 4 3 2 3 2 2 3 2 2 2 1
3 2 3 4 4 5 5 6 10 11 12 14 13 12 12 13 12 12 13 13 12 11 10 8 7 7 6 4 3 2 2 2 2 3 3 4 4 4 4 3 3 3 2 2 2 3 2 2 2
6 4 4 5 4 5 7 8 11 12 11 12 12 12 13 13 11 12 13 13 12 10 9 9 8 7 5 3 3 3 3 2 2 3 4 4 4 4 4 3 3 3 3 3 3 3 3 2 2
3 4 4 3 2 4 5 8 10 12 14 15 16 15 14 11 10 12 12 13 12 12 10 9 9 8 6 5 4 3 3 2 3 2 3 4 4 4 4 4 3 3 2 2 3 3 2 2 2
5 6 6 4 0 2 4 1 4 7 7 9 12 13 14 16 15 14 14 13 13 12 12 11 9 8 7 6 3 2 2 1 1 1 2 4 5 4 4 4 4 3 3 3 3 3 4 3 2
6 6 5 3 2 2 4 2 6 6 6 9 11 11 13 14 14 14 14 14 14 13 12 10 10 9 8 7 6 5 4 4 4 3 3 3 4 4 4 4 4 3 3 3 3 4 3 3 3
6 5 3 4 4 1 1 3 6 3 7 11 11 12 13 13 15 15 15 15 14 13 12 10 9 9 8 7 8 6 5 4 2 2 3 3 2 3 4 4 3 3 3 3 3 3 3 3 4
3 2 4 5 5 1 5 5 6 6 12 12 12 13 13 13 13 13 12 12 11 12 11 10 10 9 8 8 7 7 6 5 4 3 3 3 2 2 3 3 3 3 3 3 3 3 4 3 3
1 5 4 4 3 6 4 3 9 10 10 11 13 13 13 13 12 12 12 13 12 13 13 11 11 9 8 8 7 7 7 7 7 5 5 4 3 2 4 4 3 3 4 3 3 3 3 3 3
4 9 8 6 6 6 2 4 7 6 5 7 8 8 8 11 13 14 14 14 13 14 13 12 12 10 9 9 8 6 6 5 4 5 4 4 4 4 4 4 3 4 4 4 3 3 3 3 3
4 4 8 8 3 1 4 5 6 2 4 4 5 6 7 9 11 12 12 12 12 12 12 12 12 9 9 9 7 6 6 6 5 5 4 3 3 3 3 3 3 3 3 3 3 2 3 3 3
6 6 5 5 4 3 3 3 4 3 2 3 5 6 6 6 7 7 8 10 11 11 10 10 10 10 8 8 8 7 6 6 5 4 4 3 3 3 3 3 3 3 3 2 2 2 2 2 2
1 2 4 4 6 7 4 6 5 6 6 6 5 5 6 6 7 6 7 7 8 9 9 9 9 8 7 7 6 6 6 6 5 5 5 4 4 4 4 4 3 3 3 3 2 2 2 2 2
5 5 7 5 4 4 4 7 4 4 5 6 6 5 5 5 6 6 6 7 7 8 9 9 8 8 8 7 6 6 6 6 5 5 5 5 4 4 4 3 3 3 3 3 3 3 3 3 3
Wind_Direction
164 156 158 147 48 55 85 97 104 88 70 68 80 89 89 74 108 133 152 143 133 133 136 131 125 121 119 118 117 116 115 114 113 113 114 114 113 114 116 116 117 119 119 118 118 115 113 120 123
161 161 154 65 75 82 85 107 100 103 120 109 86 85 80 74 89 113 127 140 132 131 133 133 128 124 123 121 120 119 118 117 116 116 116 117 117 117 118 119 121 121 120 121 120 119 116 118 121
170 183 139 73 106 130 126 122 116 112 116 105 92 71 74 103 110 120 137 135 126 126 132 138 132 130 126 125 124 122 121 120 118 118 119 120 122 123 123 123 123 123 123 123 123 122 120 120 121
157 159 45 71 117 136 139 141 122 114 93 89 96 78 71 108 115 127 135 133 128 129 135 141 137 135 131 130 128 125 124 123 121 120 120 123 124 125 126 127 128 127 126 126 125 124 124 125 124
116 103 59 66 100 116 127 129 123 112 95 96 97 98 86 88 114 127 135 135 134 134 136 141 140 138 135 134 132 130 127 125 123 123 124 125 126 127 128 128 129 130 130 130 129 127 128 128 127
100 78 70 86 96 104 122 122 111 106 113 111 107 107 100 125 127 135 137 136 136 137 135 138 141 141 139 136 134 133 132 130 129 126 126 127 128 130 133 134 134 133 134 134 132 132 133 132 132
137 109 120 120 105 110 125 126 124 127 127 128 126 105 119 141 141 138 135 133 132 135 135 134 137 139 142 142 140 139 137 135 134 133 131 129 129 133 139 141 138 137 138 139 138 139 141 142 143
167 115 109 123 117 126 132 120 132 132 126 134 132 129 151 162 146 138 133 132 133 135 140 139 136 136 143 145 146 145 143 141 140 139 136 134 133 134 139 143 143 145 145 145 145 146 147 152 156
142 100 159 164 144 148 137 111 117 115 124 142 130 133 148 148 140 136 133 133 137 140 147 148 147 147 146 148 154 151 149 149 148 146 143 136 121 124 134 145 149 150 152 152 153 157 160 161 164
139 149 191 177 156 153 142 129 130 115 118 112 112 124 139 142 142 144 146 149 154 159 163 160 157 157 155 157 147 150 150 148 145 142 141 128 127 142 147 156 157 158 161 165 170 178 180 179 167
156 170 165 152 148 143 138 137 124 127 136 144 143 146 149 147 148 151 155 155 157 161 163 162 164 164 163 154 151 155 146 148 156 160 156 148 141 144 143 149 159 159 164 166 176 182 183 184 186
149 167 134 141 135 135 140 137 129 141 156 155 150 150 151 152 156 158 159 159 155 155 160 164 165 164 162 154 157 158 155 155 162 171 167 154 150 151 156 160 164 162 160 170 184 180 189 196 201
82 90 102 122 119 126 129 133 129 135 142 148 146 148 154 157 161 160 159 158 154 159 163 163 162 161 161 156 163 157 159 161 165 163 162 157 154 159 167 172 172 175 168 172 184 186 193 202 196
203 91 95 104 114 126 124 121 115 144 146 150 152 157 162 162 161 158 156 158 158 161 163 161 160 163 158 157 157 156 161 156 151 157 162 159 157 159 161 168 171 177 178 178 178 184 195 184 164
86 72 50 81 104 121 109 102 145 153 151 156 163 166 167 167 163 164 166 163 161 161 161 160 158 157 157 160 163 155 156 151 153 163 165 161 159 158 159 159 168 181 176 171 159 176 153 146 130
46 77 108 231 138 135 107 151 176 160 156 163 172 174 171 173 171 169 166 162 159 158 160 165 161 156 160 159 158 150 153 153 160 163 165 167 166 163 154 157 172 177 159 156 151 146 134 122 123
34 123 203 232 192 144 116 176 188 175 167 170 176 179 175 175 175 173 167 164 162 162 163 165 158 158 162 158 150 149 150 159 165 161 162 171 173 166 155 162 170 157 149 155 160 143 144 144 146
231 224 223 211 197 145 151 189 183 184 177 178 180 181 179 180 183 174 168 166 165 165 164 164 161 163 160 149 129 123 132 158 160 163 170 169 173 168 155 161 169 155 145 148 142 140 141 155 167
210 215 230 242 196 152 178 181 187 190 184 181 184 186 187 188 183 173 171 168 165 165 163 166 166 169 160 154 152 149 166 175 170 179 176 169 170 170 163 165 166 164 163 165 156 142 142 161 140
213 220 237 269 197 155 175 193 198 194 194 188 189 189 188 185 179 178 175 173 171 172 170 169 171 172 170 173 170 164 157 167 176 185 179 176 175 176 176 171 175 174 167 163 161 154 153 176 155
249 212 213 209 242 77 116 267 221 215 208 199 196 191 187 185 186 182 179 179 174 176 175 174 175 174 175 168 149 132 105 93 122 173 188 192 182 182 181 176 175 178 172 179 186 177 169 185 206
251 237 196 169 117 256 149 207 255 212 214 207 199 189 188 190 188 183 180 180 180 181 178 174 174 175 176 167 161 160 165 177 192 185 184 186 184 181 181 177 176 179 179 186 200 189 179 172 202
233 238 188 158 148 199 274 152 268 194 208 215 201 192 190 191 185 184 182 182 180 179 177 176 173 176 176 173 173 172 179 186 174 159 164 178 183 180 176 171 169 174 182 196 201 189 184 183 190
228 41 37 57 77 222 231 177 243 214 207 206 196 191 189 191 185 183 180 175 175 177 175 175 175 181 179 177 177 178 179 176 163 166 174 183 183 187 190 182 178 182 189 199 202 196 190 199 200
77 91 37 1 358 250 239 189 236 229 214 198 193 190 188 186 184 180 174 175 177 177 177 178 177 182 182 178 180 182 178 173 176 179 183 180 182 193 207 200 194 196 203 206 200 196 202 203 204
216 147 162 191 215 262 286 222 250 246 212 188 179 176 177 183 183 184 182 178 178 178 177 175 178 181 180 180 183 181 176 175 181 185 182 185 192 201 202 200 202 204 204 210 202 205 214 209 214
198 194 175 153 188 213 265 274 312 3 109 137 143 144 167 182 183 183 178 177 176 176 177 175 174 176 179 181 177 177 178 178 181 182 179 184 197 203 197 197 200 205 206 208 194 207 222 217 219
171 165 97 120 159 225 269 262 237 243 184 153 136 149 159 161 165 169 174 178 176 173 170 170 171 174 174 176 182 184 185 184 181 174 180 185 196 203 185 191 195 199 200 198 192 210 226 216 229
267 112 120 132 158 162 212 259 233 196 172 155 146 151 153 158 159 161 165 163 163 161 162 165 168 169 172 174 177 181 182 180 177 179 187 187 191 193 190 191 189 190 197 199 197 219 227 227 240
196 188 151 154 220 169 171 256 286 164 146 133 125 118 126 154 155 157 151 149 157 161 161 164 169 172 176 175 174 180 181 176 179 191 192 184 188 193 192 186 189 200 204 201 199 219 228 229 242